sat.trackr.live / text

‹ back to catalog

STARLINK-35918

NORAD 66643 · 2025-271AC

PAYLOAD ACTIVE UNKNOWN

§ Identity

Operator
Country
US
Launch date
2025-11-23
Launch site
AFWTR
Launch vehicle
Mass (kg)
RCS (m²)

Purposes: comms

External: N2YO · Heavens-Above · Gunter

§ Orbital elements

Epoch: 2026-05-25T03:11:46.155840Z

Period
93.85 min
Inclination
53.1593°
Eccentricity
0.0000925
Mean motion
15.34403701 rev/d
Perigee alt
462.1 km
Apogee alt
463.3 km
Semi-major
6,840.8 km
B*
8.4057e-4
RAAN
143.2179°
Arg perigee
60.0846°
Mean anomaly
300.0249°
Rev number
2,929

§ Raw data

STARLINK-359181 66643U 25271AC  26145.13317310  .00028134  00000+0  84057-3 0  99932 66643  53.1593 143.2179 0000925  60.0846 300.0249 15.34403701 29298

JSON: /api/v1/satellites/66643 · /tle

For live sub-satellite position, see the globe view (requires WebGL).

§ Visibility from observer

Set your observer location to see the next 7 days of passes ≥ 10°. The values pass through the URL so the page stays shareable.

No JS? Fill the form by hand. The geolocation button needs JavaScript.